Location: Forst
(46.9333°N, 15.4333°E)
Time: 16:12:51
(UTC+00:00)

CENTAUR R/B - Pass Details

Date: 01 December 2020
Orbit: 750 x 1438 km, 63.4° (Epoch: 11 January)

Event Time Altitude Azimuth Distance (km) Brightness Sun altitude
Rises 18:00:21 0° 210° (SSW) 3,380 5.8 -28.1°
Reaches altitude 10° 18:02:38 10° 208° (SSW) 2,518 5.0 -28.5°
Enters shadow 18:07:44 66° 172° (S) 1,050 2.5 -29.3°
